Location: Joplin, MO
(37.0842°N, 94.5133°W)
Time: 17:03:09
(UTC+02:00)

Transit 2A - Pass Details

Date: 04 April 2023
Orbit: 591 x 964 km, 66.7° (Epoch: 03 June)

Event Time Altitude Azimuth Distance (km) Brightness Sun altitude
Exits shadow 09:31:42 11° 62° (ENE) 2,431 9.0 -44.2°
Drops below altitude 10° 09:31:56 10° 60° (ENE) 2,493 9.1 -44.2°
Sets 09:35:12 0° 44° (NE) 3,501 10.1 -43.9°
